PRBSW SBEG-SBIH

Flight info

Callsign PRBSW
Flight time N/A
Altitude 7000
Route SIGEP DCT 0407S05621W
Aircraft BE36/L-BDFGLORY/S

Departure

Time 2026-04-15 20:42
Airport Eduardo Gomes International Airport (SBEG)

Arrival

Time N/A
Airport Itaituba Airport (SBIH)
Time Latitude Longitude Altitude Speed Heading
2026-04-15 20:32 -3.03271 -60.03876 263 ft 0 kts 75°
2026-04-15 20:36 -3.03268 -60.03873 263 ft 2 kts 24°
2026-04-15 20:36 -3.03237 -60.03880 263 ft 8 kts 16°
2026-04-15 20:36 -3.03182 -60.03898 263 ft 9 kts 251°
2026-04-15 20:36 -3.03209 -60.03985 263 ft 17 kts 255°
2026-04-15 20:37 -3.03238 -60.04122 263 ft 23 kts 256°
2026-04-15 20:37 -3.03286 -60.04286 263 ft 25 kts 256°
2026-04-15 20:37 -3.03337 -60.04452 263 ft 27 kts 255°
2026-04-15 20:37 -3.03350 -60.04654 263 ft 31 kts 272°
2026-04-15 20:38 -3.03437 -60.04851 263 ft 33 kts 223°
2026-04-15 20:38 -3.03588 -60.05032 263 ft 36 kts 254°
2026-04-15 20:38 -3.03651 -60.05279 263 ft 37 kts 255°
2026-04-15 20:38 -3.03686 -60.05538 263 ft 38 kts 267°
2026-04-15 20:39 -3.03690 -60.05807 263 ft 39 kts 269°
2026-04-15 20:39 -3.03691 -60.06065 262 ft 25 kts 268°
2026-04-15 20:39 -3.03746 -60.06174 263 ft 10 kts 192°
2026-04-15 20:39 -3.03765 -60.06176 263 ft 0 kts 182°
2026-04-15 20:40 -3.03786 -60.06177 263 ft 7 kts 183°
2026-04-15 20:40 -3.03848 -60.06155 264 ft 7 kts 129°
2026-04-15 20:40 -3.03862 -60.06127 264 ft 0 kts 88°
2026-04-15 20:41 -3.03861 -60.06087 264 ft 31 kts 88°
2026-04-15 20:41 -3.03858 -60.05633 277 ft 89 kts 86°
2026-04-15 20:41 -3.03872 -60.04962 440 ft 105 kts 89°
2026-04-15 20:42 -3.03884 -60.04185 620 ft 119 kts 90°
2026-04-15 20:42 -3.03870 -60.03306 841 ft 133 kts 84°
2026-04-15 20:42 -3.03853 -60.02341 977 ft 142 kts 91°
2026-04-15 20:42 -3.03874 -60.01355 1105 ft 142 kts 90°
2026-04-15 20:43 -3.03880 -60.00371 1224 ft 141 kts 90°
2026-04-15 20:43 -3.03887 -59.99396 1350 ft 139 kts 90°
2026-04-15 20:43 -3.03891 -59.98429 1468 ft 139 kts 90°
2026-04-15 20:43 -3.03894 -59.97467 1593 ft 138 kts 90°
2026-04-15 20:44 -3.03899 -59.96512 1708 ft 137 kts 91°
2026-04-15 20:44 -3.03902 -59.95565 1834 ft 139 kts 90°
2026-04-15 20:44 -3.03908 -59.94586 1953 ft 141 kts 90°
2026-04-15 20:44 -3.03947 -59.93600 2073 ft 143 kts 99°
2026-04-15 20:45 -3.04206 -59.92637 2170 ft 143 kts 105°
2026-04-15 20:45 -3.04476 -59.91674 2290 ft 144 kts 104°
2026-04-15 20:45 -3.04737 -59.90709 2419 ft 143 kts 104°
2026-04-15 20:45 -3.04998 -59.89748 2535 ft 143 kts 103°
2026-04-15 20:46 -3.05256 -59.88788 2654 ft 143 kts 104°
2026-04-15 20:46 -3.05518 -59.87828 2773 ft 143 kts 103°
2026-04-15 20:46 -3.05775 -59.86875 2896 ft 141 kts 104°
2026-04-15 20:46 -3.06031 -59.85926 3011 ft 141 kts 104°
2026-04-15 20:47 -3.06284 -59.84990 3132 ft 141 kts 104°
2026-04-15 20:47 -3.06538 -59.84041 3254 ft 141 kts 103°
2026-04-15 20:47 -3.06794 -59.83094 3375 ft 141 kts 104°
2026-04-15 20:47 -3.07050 -59.82146 3490 ft 142 kts 103°
2026-04-15 20:48 -3.07307 -59.81196 3612 ft 142 kts 103°
2026-04-15 20:48 -3.07563 -59.80244 3732 ft 142 kts 103°
2026-04-15 20:48 -3.07821 -59.79289 3856 ft 142 kts 103°
2026-04-15 20:48 -3.08079 -59.78328 3981 ft 143 kts 103°
2026-04-15 20:49 -3.08336 -59.77379 4094 ft 140 kts 103°
2026-04-15 20:49 -3.08590 -59.76441 4211 ft 140 kts 103°
2026-04-15 20:49 -3.08837 -59.75518 4333 ft 139 kts 103°
2026-04-15 20:49 -3.09090 -59.74584 4458 ft 139 kts 103°
2026-04-15 20:50 -3.09343 -59.73643 4582 ft 140 kts 103°
2026-04-15 20:50 -3.09598 -59.72699 4701 ft 141 kts 103°
2026-04-15 20:50 -3.09856 -59.71745 4822 ft 142 kts 103°
2026-04-15 20:50 -3.10112 -59.70789 4942 ft 142 kts 103°
2026-04-15 20:51 -3.10368 -59.69839 5061 ft 141 kts 103°
2026-04-15 20:51 -3.10626 -59.68889 5182 ft 142 kts 103°
2026-04-15 20:51 -3.10882 -59.67935 5301 ft 142 kts 103°
2026-04-15 20:51 -3.11140 -59.66979 5421 ft 142 kts 103°
2026-04-15 20:52 -3.11396 -59.66029 5545 ft 141 kts 103°
2026-04-15 20:52 -3.11651 -59.65079 5662 ft 141 kts 103°
2026-04-15 20:52 -3.11904 -59.64145 5782 ft 141 kts 103°
2026-04-15 20:52 -3.12159 -59.63197 5901 ft 141 kts 103°
2026-04-15 20:53 -3.12413 -59.62254 6028 ft 140 kts 103°
2026-04-15 20:53 -3.12667 -59.61314 6147 ft 140 kts 103°
2026-04-15 20:53 -3.12921 -59.60371 6266 ft 140 kts 103°
2026-04-15 20:53 -3.13174 -59.59432 6382 ft 139 kts 103°
2026-04-15 20:54 -3.13426 -59.58496 6490 ft 139 kts 103°
2026-04-15 20:54 -3.13678 -59.57561 6611 ft 139 kts 103°
2026-04-15 20:54 -3.13931 -59.56625 6726 ft 139 kts 103°
2026-04-15 20:54 -3.14184 -59.55684 6798 ft 142 kts 103°
2026-04-15 20:55 -3.14447 -59.54705 6805 ft 148 kts 103°
2026-04-15 20:55 -3.14719 -59.53697 6812 ft 152 kts 103°
2026-04-15 20:55 -3.14998 -59.52665 6818 ft 155 kts 103°
2026-04-15 20:55 -3.15281 -59.51615 6814 ft 157 kts 103°
2026-04-15 20:56 -3.15566 -59.50554 6815 ft 158 kts 103°
2026-04-15 20:56 -3.15854 -59.49488 6815 ft 159 kts 103°
2026-04-15 20:56 -3.16139 -59.48429 6814 ft 160 kts 103°
2026-04-15 20:56 -3.16429 -59.47353 6817 ft 160 kts 103°
2026-04-15 20:57 -3.16720 -59.46270 6816 ft 160 kts 103°
2026-04-15 20:57 -3.16912 -59.45560 6814 ft 160 kts 103°
2026-04-15 20:57 -3.17200 -59.44490 6815 ft 159 kts 103°
2026-04-15 20:57 -3.17488 -59.43421 6812 ft 159 kts 103°
2026-04-15 20:58 -3.17774 -59.42356 6811 ft 158 kts 103°
2026-04-15 20:58 -3.18060 -59.41294 6811 ft 158 kts 103°
2026-04-15 20:58 -3.18348 -59.40230 6810 ft 158 kts 103°
2026-04-15 20:58 -3.18633 -59.39167 6812 ft 158 kts 103°
2026-04-15 20:59 -3.18919 -59.38108 6810 ft 158 kts 103°
2026-04-15 20:59 -3.19203 -59.37048 6808 ft 158 kts 103°
2026-04-15 20:59 -3.19490 -59.35987 6807 ft 158 kts 103°
2026-04-15 20:59 -3.19777 -59.34922 6804 ft 158 kts 103°
2026-04-15 21:00 -3.20062 -59.33860 6808 ft 158 kts 103°
2026-04-15 21:00 -3.20344 -59.32812 6812 ft 158 kts 103°
2026-04-15 21:00 -3.20630 -59.31751 6807 ft 158 kts 103°
2026-04-15 21:00 -3.20915 -59.30691 6811 ft 157 kts 103°
2026-04-15 21:01 -3.21200 -59.29635 6807 ft 157 kts 103°
2026-04-15 21:01 -3.21484 -59.28577 6807 ft 157 kts 103°
2026-04-15 21:01 -3.21768 -59.27522 6810 ft 157 kts 103°
2026-04-15 21:01 -3.22052 -59.26468 6811 ft 157 kts 103°
2026-04-15 21:02 -3.22336 -59.25411 6807 ft 157 kts 103°
2026-04-15 21:02 -3.22621 -59.24355 6807 ft 157 kts 103°
2026-04-15 21:02 -3.22904 -59.23301 6808 ft 157 kts 103°
2026-04-15 21:02 -3.23188 -59.22243 6806 ft 157 kts 103°
2026-04-15 21:03 -3.23472 -59.21187 6806 ft 157 kts 103°
2026-04-15 21:03 -3.23757 -59.20131 6807 ft 157 kts 103°
2026-04-15 21:03 -3.24041 -59.19075 6807 ft 157 kts 103°
2026-04-15 21:03 -3.24326 -59.18019 6802 ft 157 kts 103°
2026-04-15 21:04 -3.24610 -59.16962 6802 ft 157 kts 103°
2026-04-15 21:04 -3.24893 -59.15910 6801 ft 157 kts 103°
2026-04-15 21:04 -3.25176 -59.14858 6804 ft 157 kts 103°
2026-04-15 21:04 -3.25459 -59.13803 6806 ft 157 kts 103°
2026-04-15 21:05 -3.25743 -59.12748 6803 ft 157 kts 103°
2026-04-15 21:05 -3.26024 -59.11706 6804 ft 158 kts 103°
2026-04-15 21:05 -3.26309 -59.10646 6804 ft 157 kts 103°
2026-04-15 21:05 -3.26593 -59.09586 6805 ft 158 kts 103°
2026-04-15 21:06 -3.26879 -59.08525 6805 ft 158 kts 103°
2026-04-15 21:06 -3.27165 -59.07467 6805 ft 157 kts 103°
2026-04-15 21:06 -3.27448 -59.06411 6805 ft 157 kts 103°
2026-04-15 21:06 -3.27732 -59.05354 6804 ft 157 kts 103°
2026-04-15 21:07 -3.28017 -59.04294 6805 ft 157 kts 103°
2026-04-15 21:07 -3.28301 -59.03238 6807 ft 157 kts 103°
2026-04-15 21:07 -3.28638 -59.02197 6806 ft 157 kts 105°
2026-04-15 21:07 -3.28963 -59.01152 6804 ft 157 kts 105°
2026-04-15 21:08 -3.29287 -59.00119 6808 ft 158 kts 105°
2026-04-15 21:08 -3.29618 -58.99071 6805 ft 158 kts 105°
2026-04-15 21:08 -3.29952 -58.98022 6810 ft 158 kts 105°
2026-04-15 21:08 -3.30286 -58.96974 6806 ft 158 kts 105°
2026-04-15 21:09 -3.30619 -58.95926 6805 ft 158 kts 106°
2026-04-15 21:09 -3.30954 -58.94875 6804 ft 158 kts 105°
2026-04-15 21:09 -3.31287 -58.93828 6807 ft 158 kts 105°
2026-04-15 21:09 -3.31621 -58.92780 6807 ft 158 kts 106°
2026-04-15 21:10 -3.31956 -58.91728 6807 ft 159 kts 105°
2026-04-15 21:10 -3.32291 -58.90675 6808 ft 159 kts 105°
2026-04-15 21:10 -3.32626 -58.89622 6809 ft 159 kts 105°
2026-04-15 21:10 -3.32961 -58.88569 6810 ft 159 kts 106°
2026-04-15 21:11 -3.33296 -58.87516 6812 ft 159 kts 105°
2026-04-15 21:11 -3.33633 -58.86461 6809 ft 159 kts 106°
2026-04-15 21:11 -3.33967 -58.85409 6808 ft 159 kts 106°